{"data":{"norad_id":58411,"epoch":"2026-09-19T17:05:37.127328Z","epoch_age_seconds":214857,"freshness":"STALE","line1":"1 58411U 23180K   26262.71223527  .00000335  00000+0  21698-4 0  9990","line2":"2 58411  43.0036  36.3573 0001665 273.8095  86.2566 15.27578796157201","mean_motion":15.27578796,"eccentricity":0.0001665,"inclination_deg":43.0036,"raan_deg":36.3573,"arg_perigee_deg":273.8095,"mean_anomaly_deg":86.2566,"bstar":2.1698e-5,"rev_number":15720,"period_min":94.266823012382,"perigee_km":481.9103131659,"apogee_km":484.19508933642,"semimajor_km":6861.1897012512,"source":"CELESTRAK","updated_at":"2026-09-21T09:00:33.871489Z"}}